Time,TemperatureF,DewpointF,PressureIn,WindDirection,WindDirectionDegrees,WindSpeedMPH,WindSpeedGustMPH,Humidity,HourlyPrecipIn,Conditions,Clouds,dailyrainin,SolarRadiationWatts/m^2,SoftwareType,DateUTC
2012-01-01 00:24:00,25.0,23.0,-100.00,ENE,71,4.0,6.0,92,0.00,,,0.00,1.000000,,2012-01-01 08:24:00,
2012-01-01 00:34:00,25.0,23.0,-100.00,ENE,71,4.0,6.0,92,0.00,,,0.00,1.000000,,2012-01-01 08:34:00,
2012-01-01 00:43:00,25.0,23.0,-100.00,ENE,71,4.0,6.0,92,0.00,,,0.00,1.000000,,2012-01-01 08:43:00,
2012-01-01 00:53:00,25.0,23.0,-100.00,ENE,71,4.0,6.0,92,0.00,,,0.00,1.000000,,2012-01-01 08:53:00,
2012-01-01 01:23:00,23.0,21.0,-100.00,East,86,5.0,6.0,91,-99.99,,,-99.99,1.000000,,2012-01-01 09:23:00,
2012-01-01 01:34:00,23.0,21.0,-100.00,East,86,5.0,6.0,91,-99.99,,,-99.99,1.000000,,2012-01-01 09:34:00,
2012-01-01 01:43:00,23.0,21.0,-100.00,East,86,5.0,6.0,91,-99.99,,,-99.99,1.000000,,2012-01-01 09:43:00,
2012-01-01 01:53:00,23.0,21.0,-100.00,East,86,5.0,6.0,91,-99.99,,,-99.99,1.000000,,2012-01-01 09:53:00,
2012-01-01 02:23:00,23.0,21.0,-100.00,ENE,66,5.0,7.0,93,0.00,,,-99.99,1.000000,,2012-01-01 10:23:00,
2012-01-01 02:34:00,23.0,21.0,-100.00,ENE,66,5.0,7.0,93,0.00,,,-99.99,1.000000,,2012-01-01 10:34:00,
2012-01-01 02:43:00,23.0,21.0,-100.00,ENE,66,5.0,7.0,93,0.00,,,-99.99,1.000000,,2012-01-01 10:43:00,
2012-01-01 02:53:00,23.0,21.0,-100.00,ENE,66,5.0,7.0,93,0.00,,,-99.99,1.000000,,2012-01-01 10:53:00,
2012-01-01 03:23:00,22.0,20.0,-100.00,East,81,3.0,6.0,92,0.00,,,-99.99,1.000000,,2012-01-01 11:23:00,
2012-01-01 03:34:00,22.0,20.0,-100.00,East,81,3.0,6.0,92,0.00,,,-99.99,1.000000,,2012-01-01 11:34:00,
2012-01-01 03:43:00,22.0,20.0,-100.00,East,81,3.0,6.0,92,0.00,,,-99.99,1.000000,,2012-01-01 11:43:00,
2012-01-01 03:53:00,22.0,20.0,-100.00,East,81,3.0,6.0,92,0.00,,,-99.99,1.000000,,2012-01-01 11:53:00,
2012-01-01 04:23:00,23.0,21.0,-100.00,ENE,70,4.0,5.0,93,0.00,,,-99.99,1.000000,,2012-01-01 12:23:00,
2012-01-01 04:34:00,23.0,21.0,-100.00,ENE,70,4.0,5.0,93,0.00,,,-99.99,1.000000,,2012-01-01 12:34:00,
2012-01-01 04:43:00,23.0,21.0,-100.00,ENE,70,4.0,5.0,93,0.00,,,-99.99,1.000000,,2012-01-01 12:43:00,
2012-01-01 04:53:00,23.0,21.0,-100.00,ENE,70,4.0,5.0,93,0.00,,,-99.99,1.000000,,2012-01-01 12:53:00,
2012-01-01 05:23:00,23.0,21.0,-100.00,NE,50,7.0,9.0,91,0.00,,,-99.99,1.000000,,2012-01-01 13:23:00,
2012-01-01 05:34:00,23.0,21.0,-100.00,NE,50,7.0,9.0,91,0.00,,,-99.99,1.000000,,2012-01-01 13:34:00,
2012-01-01 05:43:00,23.0,21.0,-100.00,NE,50,7.0,9.0,91,0.00,,,-99.99,1.000000,,2012-01-01 13:43:00,
2012-01-01 05:53:00,23.0,21.0,-100.00,NE,50,7.0,9.0,91,0.00,,,-99.99,1.000000,,2012-01-01 13:53:00,
2012-01-01 06:23:00,23.0,21.0,-100.00,ENE,66,7.0,9.0,91,0.00,,,-99.99,1.000000,,2012-01-01 14:23:00,
2012-01-01 06:34:00,23.0,21.0,-100.00,ENE,66,7.0,9.0,91,0.00,,,-99.99,1.000000,,2012-01-01 14:34:00,
2012-01-01 06:43:00,23.0,21.0,-100.00,ENE,66,7.0,9.0,91,0.00,,,-99.99,1.000000,,2012-01-01 14:43:00,
2012-01-01 06:53:00,23.0,21.0,-100.00,ENE,66,7.0,9.0,91,0.00,,,-99.99,1.000000,,2012-01-01 14:53:00,
2012-01-01 07:23:00,23.0,20.0,-100.00,ENE,64,7.0,10.0,89,0.00,,,-99.99,1.000000,,2012-01-01 15:23:00,
2012-01-01 07:34:00,23.0,20.0,-100.00,ENE,64,7.0,10.0,89,0.00,,,-99.99,1.000000,,2012-01-01 15:34:00,
2012-01-01 07:44:00,23.0,20.0,-100.00,ENE,64,7.0,10.0,89,0.00,,,-99.99,1.000000,,2012-01-01 15:44:00,
2012-01-01 07:53:00,23.0,20.0,-100.00,ENE,64,7.0,10.0,89,0.00,,,-99.99,1.000000,,2012-01-01 15:53:00,
2012-01-01 08:23:00,21.0,19.0,-100.00,ENE,68,5.0,8.0,91,0.00,,,-99.99,5.000000,,2012-01-01 16:23:00,
2012-01-01 08:34:00,21.0,19.0,-100.00,ENE,68,5.0,8.0,91,0.00,,,-99.99,5.000000,,2012-01-01 16:34:00,
2012-01-01 09:23:00,26.0,22.0,-100.00,ENE,62,7.0,10.0,85,0.00,,,-99.99,63.000000,,2012-01-01 17:23:00,
2012-01-01 09:34:00,26.0,22.0,-100.00,ENE,62,7.0,10.0,85,0.00,,,-99.99,63.000000,,2012-01-01 17:34:00,
2012-01-01 09:43:00,26.0,22.0,-100.00,ENE,62,7.0,10.0,85,0.00,,,-99.99,63.000000,,2012-01-01 17:43:00,
2012-01-01 09:53:00,26.0,22.0,-100.00,ENE,62,7.0,10.0,85,0.00,,,-99.99,63.000000,,2012-01-01 17:53:00,
2012-01-01 10:23:00,30.0,23.0,-100.00,ENE,59,7.0,11.0,76,0.00,,,-99.99,136.000000,,2012-01-01 18:23:00,
2012-01-01 10:34:00,30.0,23.0,-100.00,ENE,59,7.0,11.0,76,0.00,,,-99.99,136.000000,,2012-01-01 18:34:00,
2012-01-01 10:43:00,30.0,23.0,-100.00,ENE,59,7.0,11.0,76,0.00,,,-99.99,136.000000,,2012-01-01 18:43:00,
2012-01-01 10:53:00,30.0,23.0,-100.00,ENE,59,7.0,11.0,76,0.00,,,-99.99,136.000000,,2012-01-01 18:53:00,
2012-01-01 11:23:00,36.0,26.0,-100.00,ENE,61,5.0,10.0,66,0.00,,,-99.99,232.000000,,2012-01-01 19:23:00,
2012-01-01 11:34:00,36.0,26.0,-100.00,ENE,61,5.0,10.0,66,0.00,,,-99.99,232.000000,,2012-01-01 19:34:00,
2012-01-01 11:43:00,36.0,26.0,-100.00,ENE,61,5.0,10.0,66,0.00,,,-99.99,232.000000,,2012-01-01 19:43:00,
2012-01-01 11:53:00,36.0,26.0,-100.00,ENE,61,5.0,10.0,66,0.00,,,-99.99,232.000000,,2012-01-01 19:53:00,
2012-01-01 12:23:00,39.0,25.0,-100.00,NNE,21,3.0,7.0,57,0.00,,,-99.99,301.000000,,2012-01-01 20:23:00,
2012-01-01 12:34:00,39.0,25.0,-100.00,NNE,21,3.0,7.0,57,0.00,,,-99.99,301.000000,,2012-01-01 20:34:00,
2012-01-01 12:43:00,39.0,25.0,-100.00,NNE,21,3.0,7.0,57,0.00,,,-99.99,301.000000,,2012-01-01 20:43:00,
2012-01-01 12:53:00,39.0,25.0,-100.00,NNE,21,3.0,7.0,57,0.00,,,-99.99,301.000000,,2012-01-01 20:53:00,
2012-01-01 13:23:00,44.0,28.0,-100.00,North,11,1.0,5.0,54,0.00,,,-99.99,377.000000,,2012-01-01 21:23:00,
2012-01-01 13:34:00,44.0,28.0,-100.00,North,11,1.0,5.0,54,0.00,,,-99.99,377.000000,,2012-01-01 21:34:00,
2012-01-01 13:43:00,44.0,28.0,-100.00,North,11,1.0,5.0,54,0.00,,,-99.99,377.000000,,2012-01-01 21:43:00,
2012-01-01 13:53:00,44.0,28.0,-100.00,North,11,1.0,5.0,54,0.00,,,-99.99,377.000000,,2012-01-01 21:53:00,
2012-01-01 14:23:00,43.0,27.0,-100.00,ENE,75,2.0,4.0,53,0.00,,,-99.99,233.000000,,2012-01-01 22:23:00,
2012-01-01 14:34:00,43.0,27.0,-100.00,ENE,75,2.0,4.0,53,0.00,,,-99.99,233.000000,,2012-01-01 22:34:00,
2012-01-01 14:43:00,43.0,27.0,-100.00,ENE,75,2.0,4.0,53,0.00,,,-99.99,233.000000,,2012-01-01 22:43:00,
2012-01-01 14:53:00,43.0,27.0,-100.00,ENE,75,2.0,4.0,53,0.00,,,-99.99,233.000000,,2012-01-01 22:53:00,
2012-01-01 15:23:00,41.0,30.0,-100.00,WSW,243,2.0,4.0,65,0.00,,,-99.99,181.000000,,2012-01-01 23:23:00,
2012-01-01 15:34:00,41.0,30.0,-100.00,WSW,243,2.0,4.0,65,0.00,,,-99.99,181.000000,,2012-01-01 23:34:00,
2012-01-01 15:43:00,41.0,30.0,-100.00,WSW,243,2.0,4.0,65,0.00,,,-99.99,181.000000,,2012-01-01 23:43:00,
2012-01-01 15:53:00,41.0,30.0,-100.00,WSW,243,2.0,4.0,65,0.00,,,-99.99,181.000000,,2012-01-01 23:53:00,
2012-01-01 16:23:00,39.0,29.0,-100.00,NW,308,2.0,4.0,68,0.00,,,-99.99,95.000000,,2012-01-02 00:23:00,
2012-01-01 16:34:00,39.0,29.0,-100.00,NW,308,2.0,4.0,68,0.00,,,-99.99,95.000000,,2012-01-02 00:34:00,
2012-01-01 16:43:00,39.0,29.0,-100.00,NW,308,2.0,4.0,68,0.00,,,-99.99,95.000000,,2012-01-02 00:43:00,
2012-01-01 16:53:00,39.0,29.0,-100.00,NW,308,2.0,4.0,68,0.00,,,-99.99,95.000000,,2012-01-02 00:53:00,
2012-01-01 17:23:00,37.0,28.0,-100.00,East,89,3.0,4.0,71,0.00,,,-99.99,38.000000,,2012-01-02 01:23:00,
2012-01-01 17:33:00,37.0,28.0,-100.00,East,89,3.0,4.0,71,0.00,,,-99.99,38.000000,,2012-01-02 01:33:00,
2012-01-01 17:43:00,37.0,28.0,-100.00,East,89,3.0,4.0,71,0.00,,,-99.99,38.000000,,2012-01-02 01:43:00,
2012-01-01 17:53:00,37.0,28.0,-100.00,East,89,3.0,4.0,71,0.00,,,-99.99,38.000000,,2012-01-02 01:53:00,
2012-01-01 18:23:00,36.0,29.0,-100.00,North,351,1.0,5.0,74,0.00,,,-99.99,1.000000,,2012-01-02 02:23:00,
2012-01-01 18:33:00,36.0,29.0,-100.00,North,351,1.0,5.0,74,0.00,,,-99.99,1.000000,,2012-01-02 02:33:00,
2012-01-01 18:43:00,36.0,29.0,-100.00,North,351,1.0,5.0,74,0.00,,,-99.99,1.000000,,2012-01-02 02:43:00,
2012-01-01 18:53:00,36.0,29.0,-100.00,North,351,1.0,5.0,74,0.00,,,-99.99,1.000000,,2012-01-02 02:53:00,
2012-01-01 19:23:00,32.0,28.0,-100.00,ENE,70,5.0,6.0,85,0.00,,,-99.99,1.000000,,2012-01-02 03:23:00,
2012-01-01 19:33:00,32.0,28.0,-100.00,ENE,70,5.0,6.0,85,0.00,,,-99.99,1.000000,,2012-01-02 03:33:00,
2012-01-01 19:43:00,32.0,28.0,-100.00,ENE,70,5.0,6.0,85,0.00,,,-99.99,1.000000,,2012-01-02 03:43:00,
2012-01-01 19:53:00,32.0,28.0,-100.00,ENE,70,5.0,6.0,85,0.00,,,-99.99,1.000000,,2012-01-02 03:53:00,
2012-01-01 20:23:00,32.0,28.0,-100.00,ENE,64,5.0,7.0,86,0.00,,,-99.99,1.000000,,2012-01-02 04:23:00,
2012-01-01 20:33:00,32.0,28.0,-100.00,ENE,64,5.0,7.0,86,0.00,,,-99.99,1.000000,,2012-01-02 04:33:00,
2012-01-01 20:43:00,32.0,28.0,-100.00,ENE,64,5.0,7.0,86,0.00,,,-99.99,1.000000,,2012-01-02 04:43:00,
2012-01-01 20:53:00,32.0,28.0,-100.00,ENE,64,5.0,7.0,86,0.00,,,-99.99,1.000000,,2012-01-02 04:53:00,
2012-01-01 21:23:00,33.0,28.0,-100.00,ENE,67,7.0,8.0,81,0.00,,,-99.99,1.000000,,2012-01-02 05:23:00,
2012-01-01 21:34:00,33.0,28.0,-100.00,ENE,67,7.0,8.0,81,0.00,,,-99.99,1.000000,,2012-01-02 05:34:00,
2012-01-01 21:43:00,33.0,28.0,-100.00,ENE,67,7.0,8.0,81,0.00,,,-99.99,1.000000,,2012-01-02 05:43:00,
2012-01-01 21:53:00,33.0,28.0,-100.00,ENE,67,7.0,8.0,81,0.00,,,-99.99,1.000000,,2012-01-02 05:53:00,
2012-01-01 22:23:00,32.0,27.0,-100.00,NE,53,5.0,8.0,83,0.00,,,-99.99,1.000000,,2012-01-02 06:23:00,
2012-01-01 22:34:00,32.0,27.0,-100.00,NE,53,5.0,8.0,83,0.00,,,-99.99,1.000000,,2012-01-02 06:34:00,
2012-01-01 22:43:00,32.0,27.0,-100.00,NE,53,5.0,8.0,83,0.00,,,-99.99,1.000000,,2012-01-02 06:43:00,
2012-01-01 22:53:00,32.0,27.0,-100.00,NE,53,5.0,8.0,83,0.00,,,-99.99,1.000000,,2012-01-02 06:53:00,
2012-01-01 23:23:00,32.0,28.0,-100.00,North,2,3.0,6.0,84,0.00,,,-99.99,1.000000,,2012-01-02 07:23:00,
2012-01-01 23:34:00,32.0,28.0,-100.00,North,2,3.0,6.0,84,0.00,,,-99.99,1.000000,,2012-01-02 07:34:00,
2012-01-01 23:43:00,32.0,28.0,-100.00,North,2,3.0,6.0,84,0.00,,,-99.99,1.000000,,2012-01-02 07:43:00,
2012-01-01 23:53:00,32.0,28.0,-100.00,North,2,3.0,6.0,84,0.00,,,-99.99,1.000000,,2012-01-02 07:53:00,